#timestamp,LO_Frequency,Hit,StdDev 
1520438415.7,286047011.9,Y
1520438435.6,286046998.9,P
1520438455.4,286046999.5,N
1520438475.2,286046999.1,N
1520438495.1,286046998.7,N
1520438496.0,286046998.7,N
1520438515.8,286046998.7,N
1520438535.6,286046998.8,N
1520438555.5,286046996.8,Y
1520438575.3,286046999.1,P
1520438595.2,286046997.9,P
1520438615.9,286046995.4,P
1520438635.7,286046996.1,N
1520438655.6,286046995.8,N
1520438675.4,286046995.9,N
1520438695.3,286046994.1,Y
1520438715.1,286046997.6,P
1520438716.0,286046997.6,P
1520438735.8,286046999.4,N
1520438755.7,286046997.0,Y
1520438805.5,286047000.8,E
1520438815.5,286046998.6,N
1520438835.3,286046999.3,P
1520438855.1,286046999.6,N
1520438875.9,286046999.5,N
1520438895.7,286046999.4,N
1520438915.6,286046999.6,N
1520438935.4,286046996.5,Y
1520438955.2,286046998.3,P
1520438975.1,286046998.2,P
1520438976.0,286046998.2,P
1520438995.8,286046998.9,N
1520439015.6,286047001.1,N
1520439035.5,286046998.5,N
1520439055.3,286046999.2,N
1520439075.2,286046996.7,Y
1520439095.9,286046996.5,P
1520439115.7,286046997.3,N
1520439135.6,286046996.8,P
1520439155.4,286046997.3,N
1520439175.2,286046997.5,N
1520439195.1,286046997.9,N
1520439196.0,286046997.9,N
1520439215.8,286046997.5,Y
1520439235.7,286046998.9,P
1520439255.5,286046998.7,N
1520439275.3,286046998.3,N
1520439295.2,286046998.1,Y
1520439315.0,286046999.8,P
1520439315.9,286046999.8,N
1520439335.8,286047002.8,P
1520439355.6,286047002.8,N
1520439375.4,286047002.8,N
1520439395.3,286047002.6,N
1520439415.1,286046999.8,N
1520439435.9,286047000.4,N
1520439455.7,286047002.8,N
1520439475.5,286047001.1,N
1520439495.4,286046998.6,N
1520439515.2,286046999.3,N
1520439535.0,286047001.1,N
1520439535.9,286047001.1,N
1520439555.8,286047001.0,N
1520439575.6,286047001.2,N
1520439595.5,286046998.6,N
1520439615.3,286046998.3,N
1520439635.1,286046999.5,N
1520439655.9,286046996.7,N
1520439675.7,286046999.1,N
1520439695.5,286046997.6,N
1520439715.4,286046997.9,N
1520439735.2,286046997.6,N
1520439755.1,286046997.9,N
1520439756.0,286046997.9,N
1520439775.8,286046997.9,N
1520439795.6,286046997.1,N
1520439815.5,286046998.8,N
1520439835.3,286046999.1,N
1520439855.1,286046997.0,N
1520439875.9,286046997.1,N
1520439895.7,286046997.4,N
1520439915.6,286046997.5,N
1520439935.4,286046997.8,N
1520439955.2,286046997.7,N
1520439975.1,286046997.8,N
1520439976.0,286046997.8,N
1520439995.8,286046996.7,N
1520440045.7,286046996.7,E
1520440055.6,286046998.3,N
1520440075.4,286047002.6,P
1520440095.3,286047002.2,N
1520440115.1,286047002.2,N
1520440135.8,286046999.8,N
1520440155.7,286047002.0,N
1520440175.5,286047001.6,N
1520440195.4,286047000.9,N
1520440215.2,286047000.8,N
1520440235.0,286046999.9,N
1520440235.9,286046999.9,N
1520440255.8,286047000.2,N
1520440275.6,286047002.2,N
1520440295.4,286047000.1,N
1520440315.3,286047000.9,N
1520440335.1,286047000.8,N
1520440355.9,286046998.1,N
1520440375.7,286047000.6,N
1520440395.5,286046999.8,N
1520440415.4,286047000.1,N
1520440435.2,286047001.2,N
1520440455.0,286046998.3,N
1520440456.0,286046998.3,N
1520440475.8,286046997.0,N
1520440495.6,286046997.3,N
1520440515.5,286046996.5,N
1520440535.3,286046999.1,N
1520440555.2,286046996.5,N
1520440575.9,286046996.5,N
1520440595.7,286046999.5,N
1520440615.6,286046998.8,N
1520440635.4,286046998.7,N
1520440655.2,286046998.9,N
1520440675.1,286046998.6,N
1520440676.0,286046998.6,N
1520440695.8,286046998.7,N
1520440715.7,286046999.0,N
1520440735.5,286046997.0,N
1520440755.3,286046997.7,N
1520440775.2,286046997.3,N
1520440795.0,286046997.0,N
1520440795.9,286046997.0,N
1520440815.7,286046997.8,N
1520440835.6,286046996.7,N
1520440855.4,286046997.7,N
1520440875.3,286046997.4,N
1520440895.1,286046997.1,N
1520440896.0,286046997.1,N
1520440915.8,286046996.7,N
1520440935.7,286046999.6,N
1520440955.5,286046997.4,N
1520440975.3,286046997.2,N
1520440995.2,286046995.6,Y
1520441015.0,286046999.4,P
1520441015.9,286046999.4,N
1520441035.8,286046998.7,N
1520441055.6,286046999.2,N
1520441075.4,286046999.4,N
1520441095.3,286046998.4,N
1520441115.1,286047001.0,N
1520441135.9,286047000.7,N
1520441155.7,286047000.8,N
1520441175.5,286046998.5,N
1520441195.4,286047001.1,N
1520441215.2,286046998.2,N
1520441235.0,286046998.4,N
1520441235.9,286046998.4,N
1520441255.8,286046998.1,N
1520441275.6,286047000.6,N
1520441295.5,286047002.8,N
1520441315.3,286047002.4,N
1520441335.1,286047002.4,N
1520441355.9,286047002.3,N
1520441375.7,286047002.0,N
1520441395.5,286047004.1,N
1520441415.4,286047001.5,N
1520441435.2,286047002.1,N
1520441455.1,286047001.8,N
1520441456.0,286047001.8,N
1520441475.8,286047004.0,N
1520441495.6,286047003.2,N
1520441515.5,286047003.4,N
1520441535.3,286047005.6,N
1520441555.2,286047003.7,N
1520441575.9,286047002.9,N
1520441595.7,286047005.8,N
1520441615.6,286047005.4,N
1520441635.4,286047005.3,N
1520441655.3,286047004.6,N
1520441675.1,286047005.4,N
1520441676.0,286047005.4,N
1520441695.8,286047004.8,N
1520441715.7,286047004.5,N
1520441735.5,286047004.6,N
1520441755.4,286047007.5,Y
1520441775.2,286047003.2,P
1520441795.0,286047001.6,P
1520441795.9,286047001.6,N
1520441815.8,286047004.4,Y
1520441835.6,286047002.6,P
1520441855.5,286047001.6,P
1520441875.3,286047002.6,P
1520441895.1,286047002.5,Y
1520441915.9,286047001.0,P
1520441935.7,286047001.2,N
1520441955.5,286046998.2,P
1520441975.4,286047000.7,N
1520441995.2,286046998.3,N
